STARLINK-34499, 64709

Orbit data source: Space-Track

STARLINK-34499, 64709 is a payload satellite owned by SpaceX/Seattle (US) in LEO that was launched on Sat, 28 Jun 2025 UTC via an FALCON 9 launch vehicle from the Air Force Western Test Range (AFWTR). Payload-class satellites include a variety of spacecraft equipped with specific instruments for various scientific and technological missions. These include communications satellites like Starlink; space stations such as the ISS; scientific satellites like the Hubble; Earth observation satellites from companies like Planet Labs, Umbra, and HawkEye 360; GPS; miniature CubeSats for education and research; and military/defense satellites.

Loading next visibility...
Identifier
64709, 2025-142P
Orbit
LEO
Country
Flag of USUS
Related business
Manufacturer
SpaceX/Seattle
Mission
Operational Commercial Communications
Bus & Motor
STARLINK V2MO, Unknown motor
Mass
575 kg wet, ~530 kg dry
Launch date (UTC)
2025-06-28 (11 months ago)
Launch vehicle
FALCON 9
Launch site
Air Force Western Test Range (AFWTR)
Object type
Payload
Rocket body
Debris
Shape & HBR
Box + 2 Pan, 17.7 m
Radar Cross Section
36.964 m², Large (>1 m²)

Expand to show TLE details & history
Last TLE update: 13 hours ago

TLE from 13 hours ago
0 STARLINK-34499
1 64709U 25142P   26145.33376404  .00004315  00000-0  36912-3 0  9995
2 64709  70.0002 121.0931 0004154 263.3509  96.7177 14.98338313 50944
Epoch: 2026-05-25T08:00Z
TLE epoch observation values (Epoch: 2026-05-25T08:00:37.213Z)
Latitude
-0.00003°
Longitude
118.01498°
Altitude
574.793 km
Speed
7.574 km/s
True Right ascension
08h 04m 22s
True Declination
0° 00' 00"
Sunlit
Object was in daylight at epoch
Visualization orbit readout
Latitude
Unknown
Longitude
Unknown
Altitude
Unknown
Speed
Unknown
Apparent Right ascension
Unknown
Apparent Declination
Unknown
Sunlit
N/A
Visualization observer readout
Local Sidereal Time
06:05:33
Azimuth
Unknown
Elevation
Unknown
Doppler factor
Unknown
Orbital elements
Apogee altitude
572.865 km
Perigee altitude
567.092 km
Semi-major axis
6,948.115 km
Eccentricity
0.00042
Inclination
70.0002°
RAAN
121.0931°
Arg. of periapsis
263.3509°
True anomaly
96.76497°
Mean anomaly
96.7177°
Eccentric anomaly
96.74134°
Mean motion
3.74751 °/min
Orbital period
96.06 mins
BSTAR
0.00036912
Loading maneuver chart data...
Computing Atmospheric mass density...
Loading historical data...
Loading historical data...
Loading historical data...
Loading historical data...
Loading historical data...
Loading historical data...
Loading historical data...

Documentation

Showing up to 5 results
|